Location: Angwan Shehu
(11.2514°N, 7.4613°E)
Time: 23:08:38
(UTC+00:00)

Vanguard 3 - Pass Details

Date: 01 August 2021
Orbit: 510 x 3260 km, 33.3° (Epoch: 18 September)

Event Time Altitude Azimuth Distance (km) Brightness Sun altitude
Rises 22:32:52 0° 305° (NW) 7,143 12.4 -57.0°
Reaches altitude 10° 22:37:48 10° 309° (NW) 6,190 11.9 -57.6°
Enters shadow 22:53:50 55° 349° (NNW) 3,422 10.1 -59.1°
